Time,TemperatureF,DewpointF,PressureIn,WindDirection,WindDirectionDegrees,WindSpeedMPH,WindSpeedGustMPH,Humidity,HourlyPrecipIn,Conditions,Clouds,dailyrainin,SoftwareType,DateUTC
2013-10-02 00:01:00,62.0,57.1,29.96,SW,225,0.0,0.0,84,0.00,,CLR,0.00,VWS V14.01,2013-10-02 04:01:00,
2013-10-02 00:02:00,61.9,57.3,29.96,SW,225,0.0,0.0,85,0.00,,CLR,0.00,VWS V14.01,2013-10-02 04:02:00,
2013-10-02 00:07:00,62.6,57.7,29.96,West,278,0.0,0.0,84,0.00,,CLR,0.00,VWS V14.01,2013-10-02 04:07:00,
2013-10-02 00:12:00,62.7,57.5,29.96,SE,128,0.0,0.0,83,0.00,,CLR,0.00,VWS V14.01,2013-10-02 04:12:00,
2013-10-02 00:17:00,62.6,57.4,29.96,SE,129,0.0,0.0,83,0.00,,CLR,0.00,VWS V14.01,2013-10-02 04:17:00,
2013-10-02 00:23:00,62.5,57.3,29.96,SE,128,0.0,0.0,83,0.00,,CLR,0.00,VWS V14.01,2013-10-02 04:23:00,
2013-10-02 00:28:00,62.3,57.1,29.96,SE,128,0.0,0.0,83,0.00,,CLR,0.00,VWS V14.01,2013-10-02 04:28:00,
2013-10-02 00:33:00,62.1,57.2,29.97,SE,128,0.0,0.0,84,0.00,,CLR,0.00,VWS V14.01,2013-10-02 04:33:00,
2013-10-02 00:38:00,62.1,57.2,29.96,ESE,118,0.0,0.0,84,0.00,,,0.00,VWS V14.01,2013-10-02 04:38:00,
2013-10-02 00:43:00,61.7,57.2,29.96,ESE,110,0.0,0.0,85,0.00,,,0.00,VWS V14.01,2013-10-02 04:43:00,
2013-10-02 00:48:00,61.1,56.9,29.96,ESE,118,0.0,0.0,86,0.00,,,0.00,VWS V14.01,2013-10-02 04:48:00,
2013-10-02 00:53:00,61.2,57.3,29.96,ESE,118,0.0,0.0,87,0.00,,,0.00,VWS V14.01,2013-10-02 04:53:00,
2013-10-02 00:58:00,61.6,57.4,29.96,ESE,119,0.0,0.0,86,0.00,,,0.00,VWS V14.01,2013-10-02 04:58:00,
2013-10-02 01:03:00,62.0,57.5,29.96,ESE,119,0.0,0.0,85,0.00,,,0.00,VWS V14.01,2013-10-02 05:03:00,
2013-10-02 01:08:00,62.5,57.6,29.96,ESE,119,0.0,0.0,84,0.00,,,0.00,VWS V14.01,2013-10-02 05:08:00,
2013-10-02 01:14:00,62.9,57.7,29.96,ESE,119,0.0,0.0,83,0.00,,,0.00,VWS V14.01,2013-10-02 05:14:00,
2013-10-02 01:19:00,62.9,57.3,29.96,East,94,0.0,0.0,82,0.00,,,0.00,VWS V14.01,2013-10-02 05:19:00,
2013-10-02 01:24:00,62.9,57.3,29.96,WSW,256,0.0,0.0,82,0.00,,,0.00,VWS V14.01,2013-10-02 05:24:00,
2013-10-02 01:29:00,62.6,57.0,29.96,WSW,256,0.0,0.0,82,0.00,,,0.00,VWS V14.01,2013-10-02 05:29:00,
2013-10-02 01:34:00,62.1,56.9,29.97,WSW,256,0.0,0.0,83,0.00,,,0.00,VWS V14.01,2013-10-02 05:34:00,
2013-10-02 01:39:00,62.2,57.0,29.97,WSW,256,0.0,0.0,83,0.00,,,0.00,VWS V14.01,2013-10-02 05:39:00,
2013-10-02 01:44:00,61.7,57.2,29.97,East,84,0.0,0.0,85,0.00,,,0.00,VWS V14.01,2013-10-02 05:44:00,
2013-10-02 01:49:00,61.9,57.0,29.97,East,83,0.0,0.0,84,0.00,,,0.00,VWS V14.01,2013-10-02 05:49:00,
2013-10-02 01:54:00,61.8,56.9,29.97,East,83,0.0,0.0,84,0.00,,,0.00,VWS V14.01,2013-10-02 05:54:00,
2013-10-02 01:59:00,61.4,56.9,29.97,East,83,0.0,0.0,85,0.00,,,0.00,VWS V14.01,2013-10-02 05:59:00,
2013-10-02 02:05:00,61.3,56.8,29.97,East,83,0.0,0.0,85,0.00,,,0.00,VWS V14.01,2013-10-02 06:05:00,
2013-10-02 02:10:00,61.3,56.8,29.97,East,84,0.0,0.0,85,0.00,,,0.00,VWS V14.01,2013-10-02 06:10:00,
2013-10-02 02:15:00,61.4,56.9,29.97,East,84,0.0,0.0,85,0.00,,,0.00,VWS V14.01,2013-10-02 06:15:00,
2013-10-02 02:20:00,61.6,57.0,29.97,East,84,0.0,0.0,85,0.00,,,0.00,VWS V14.01,2013-10-02 06:20:00,
2013-10-02 02:25:00,61.7,57.2,29.97,East,84,0.0,0.0,85,0.00,,,0.00,VWS V14.01,2013-10-02 06:25:00,
2013-10-02 02:30:00,62.0,57.1,29.97,East,84,0.0,0.0,84,0.00,,,0.00,VWS V14.01,2013-10-02 06:30:00,
2013-10-02 02:35:00,62.0,57.1,29.97,East,84,0.0,0.0,84,0.00,,,0.00,VWS V14.01,2013-10-02 06:35:00,
2013-10-02 02:40:00,61.7,57.2,29.97,East,83,0.0,0.0,85,0.00,,,0.00,VWS V14.01,2013-10-02 06:40:00,
2013-10-02 02:45:00,61.7,57.2,29.97,East,84,0.0,0.0,85,0.00,,,0.00,VWS V14.01,2013-10-02 06:45:00,
2013-10-02 02:50:00,61.7,57.2,29.97,East,84,0.0,0.0,85,0.00,,,0.00,VWS V14.01,2013-10-02 06:50:00,
2013-10-02 02:55:00,62.0,57.5,29.97,East,85,0.0,0.0,85,0.00,,,0.00,VWS V14.01,2013-10-02 06:55:00,
2013-10-02 03:01:00,62.1,57.5,29.97,East,85,0.0,0.0,85,0.00,,,0.00,VWS V14.01,2013-10-02 07:01:00,
2013-10-02 03:06:00,62.2,57.3,29.97,SSE,159,0.0,0.0,84,0.00,,,0.00,VWS V14.01,2013-10-02 07:06:00,
2013-10-02 03:11:00,62.2,57.6,29.96,South,177,0.0,0.0,85,0.00,,,0.00,VWS V14.01,2013-10-02 07:11:00,
2013-10-02 03:16:00,62.2,57.6,29.96,South,178,0.0,0.0,85,0.00,,,0.00,VWS V14.01,2013-10-02 07:16:00,
2013-10-02 03:21:00,62.3,57.7,29.96,South,178,0.0,0.0,85,0.00,,,0.00,VWS V14.01,2013-10-02 07:21:00,
2013-10-02 03:26:00,62.2,57.6,29.96,South,178,0.0,0.0,85,0.00,,,0.00,VWS V14.01,2013-10-02 07:26:00,
2013-10-02 03:31:00,61.8,57.2,29.96,South,177,0.0,0.0,85,0.00,,,0.00,VWS V14.01,2013-10-02 07:31:00,
2013-10-02 03:36:00,61.6,57.4,29.96,South,178,0.0,0.0,86,0.00,,,0.00,VWS V14.01,2013-10-02 07:36:00,
2013-10-02 03:41:00,61.6,57.7,29.96,SSW,203,0.0,0.0,87,0.00,,,0.00,VWS V14.01,2013-10-02 07:41:00,
2013-10-02 03:46:00,61.7,57.8,29.96,SSW,203,0.0,0.0,87,0.00,,,0.00,VWS V14.01,2013-10-02 07:46:00,
2013-10-02 03:51:00,62.0,57.8,29.97,SSW,204,0.0,0.0,86,0.00,,,0.00,VWS V14.01,2013-10-02 07:51:00,
2013-10-02 03:56:00,62.3,58.1,29.96,SW,228,0.0,0.0,86,0.00,,,0.00,VWS V14.01,2013-10-02 07:56:00,
2013-10-02 04:02:00,62.5,58.3,29.97,SW,228,0.0,0.0,86,0.00,,,0.00,VWS V14.01,2013-10-02 08:02:00,
2013-10-02 04:07:00,62.4,57.8,29.97,SW,228,0.0,0.0,85,0.00,,,0.00,VWS V14.01,2013-10-02 08:07:00,
2013-10-02 04:12:00,62.0,57.8,29.97,SW,228,0.0,0.0,86,0.00,,,0.00,VWS V14.01,2013-10-02 08:12:00,
2013-10-02 04:17:00,61.6,57.7,29.97,SW,228,0.0,0.0,87,0.00,,,0.00,VWS V14.01,2013-10-02 08:17:00,
2013-10-02 04:22:00,61.4,57.8,29.97,SW,228,0.0,0.0,88,0.00,,,0.00,VWS V14.01,2013-10-02 08:22:00,
2013-10-02 04:27:00,61.2,57.6,29.97,SW,228,0.0,0.0,88,0.00,,,0.00,VWS V14.01,2013-10-02 08:27:00,
2013-10-02 04:32:00,61.6,58.0,29.97,SW,228,0.0,0.0,88,0.00,,,0.00,VWS V14.01,2013-10-02 08:32:00,
2013-10-02 04:37:00,61.9,58.3,29.97,SW,228,0.0,0.0,88,0.00,,,0.00,VWS V14.01,2013-10-02 08:37:00,
2013-10-02 04:42:00,62.1,58.2,29.97,SW,228,0.0,0.0,87,0.00,,,0.00,VWS V14.01,2013-10-02 08:42:00,
2013-10-02 04:47:00,62.1,58.2,29.96,NW,308,0.0,0.0,87,0.00,,,0.00,VWS V14.01,2013-10-02 08:47:00,
2013-10-02 04:52:00,62.2,58.3,29.97,NW,307,0.0,0.0,87,0.00,,,0.00,VWS V14.01,2013-10-02 08:52:00,
2013-10-02 04:57:00,62.0,58.1,29.97,NW,307,0.0,0.0,87,0.00,,,0.00,VWS V14.01,2013-10-02 08:57:00,
2013-10-02 05:03:00,61.7,57.8,29.97,NW,307,0.0,0.0,87,0.00,,,0.00,VWS V14.01,2013-10-02 09:03:00,
2013-10-02 05:08:00,61.5,57.9,29.97,NW,307,0.0,0.0,88,0.00,,,0.00,VWS V14.01,2013-10-02 09:08:00,
2013-10-02 05:13:00,61.4,57.8,29.97,NW,307,0.0,0.0,88,0.00,,,0.00,VWS V14.01,2013-10-02 09:13:00,
2013-10-02 05:18:00,61.1,57.5,29.97,NW,307,0.0,0.0,88,0.00,,,0.00,VWS V14.01,2013-10-02 09:18:00,
2013-10-02 05:23:00,60.9,57.6,29.97,NW,307,0.0,0.0,89,0.00,,,0.00,VWS V14.01,2013-10-02 09:23:00,
2013-10-02 05:28:00,60.9,58.0,29.97,NW,307,0.0,0.0,90,0.00,,,0.00,VWS V14.01,2013-10-02 09:28:00,
2013-10-02 05:33:00,61.2,58.2,29.97,SW,236,0.0,0.0,90,0.00,,,0.00,VWS V14.01,2013-10-02 09:33:00,
2013-10-02 05:38:00,61.5,57.9,29.97,SW,236,0.0,0.0,88,0.00,,,0.00,VWS V14.01,2013-10-02 09:38:00,
2013-10-02 05:43:00,61.3,57.7,29.97,SW,235,0.0,0.0,88,0.00,,,0.00,VWS V14.01,2013-10-02 09:43:00,
2013-10-02 05:48:00,60.8,57.5,29.97,SW,235,0.0,0.0,89,0.00,,,0.00,VWS V14.01,2013-10-02 09:48:00,
2013-10-02 05:53:00,60.5,57.6,29.97,SW,235,0.0,0.0,90,0.00,,,0.00,VWS V14.01,2013-10-02 09:53:00,
2013-10-02 05:58:00,60.5,57.6,29.98,SW,235,0.0,0.0,90,0.00,,,0.00,VWS V14.01,2013-10-02 09:58:00,
2013-10-02 06:03:00,60.3,57.4,29.98,East,100,0.0,0.0,90,0.00,,,0.00,VWS V14.01,2013-10-02 10:03:00,
2013-10-02 06:09:00,60.0,57.4,29.98,ENE,68,0.0,0.0,91,0.00,,,0.00,VWS V14.01,2013-10-02 10:09:00,
2013-10-02 06:14:00,59.9,57.3,29.98,ENE,68,0.0,0.0,91,0.00,,,0.00,VWS V14.01,2013-10-02 10:14:00,
2013-10-02 06:19:00,59.7,57.1,29.98,ENE,68,0.0,0.0,91,0.00,,,0.00,VWS V14.01,2013-10-02 10:19:00,
2013-10-02 06:24:00,59.9,57.6,29.98,ENE,68,0.0,0.0,92,0.00,,,0.00,VWS V14.01,2013-10-02 10:24:00,
2013-10-02 06:29:00,59.9,57.6,29.98,ENE,68,0.0,0.0,92,0.00,,,0.00,VWS V14.01,2013-10-02 10:29:00,
2013-10-02 06:34:00,59.9,57.6,29.98,ENE,68,0.0,0.0,92,0.00,,,0.00,VWS V14.01,2013-10-02 10:34:00,
2013-10-02 06:39:00,60.1,57.8,29.99,ENE,67,0.0,0.0,92,0.00,,,0.00,VWS V14.01,2013-10-02 10:39:00,
2013-10-02 06:44:00,60.2,57.6,29.99,ENE,72,0.0,0.0,91,0.00,,,0.00,VWS V14.01,2013-10-02 10:44:00,
2013-10-02 06:49:00,60.1,57.8,29.99,WSW,255,0.0,0.0,92,0.00,,,0.00,VWS V14.01,2013-10-02 10:49:00,
2013-10-02 06:54:00,60.0,57.4,29.99,SSW,200,0.0,0.0,91,0.00,,,0.00,VWS V14.01,2013-10-02 10:54:00,
2013-10-02 06:59:00,59.6,57.0,29.99,SSW,200,0.0,0.0,91,0.00,,,0.00,VWS V14.01,2013-10-02 10:59:00,
2013-10-02 07:04:00,59.2,56.9,29.99,South,170,0.0,0.0,92,0.00,,,0.00,VWS V14.01,2013-10-02 11:04:00,
2013-10-02 07:09:00,59.1,57.1,29.99,South,169,0.0,0.0,93,0.00,,,0.00,VWS V14.01,2013-10-02 11:09:00,
2013-10-02 07:15:00,59.2,57.2,29.99,South,169,0.0,0.0,93,0.00,,,0.00,VWS V14.01,2013-10-02 11:15:00,
2013-10-02 07:20:00,59.4,57.4,29.99,South,169,0.0,0.0,93,0.00,,,0.00,VWS V14.01,2013-10-02 11:20:00,
2013-10-02 07:25:00,59.7,57.7,30.00,South,169,0.0,0.0,93,0.00,,,0.00,VWS V14.01,2013-10-02 11:25:00,
2013-10-02 07:30:00,60.0,58.0,30.00,ESE,110,0.0,0.0,93,0.00,,,0.00,VWS V14.01,2013-10-02 11:30:00,
2013-10-02 07:35:00,60.5,58.2,30.00,ESE,110,0.0,0.0,92,0.00,,,0.00,VWS V14.01,2013-10-02 11:35:00,
2013-10-02 07:40:00,60.9,58.3,30.00,ESE,110,0.0,0.0,91,0.00,,,0.00,VWS V14.01,2013-10-02 11:40:00,
2013-10-02 07:45:00,61.4,58.8,30.00,ESE,110,0.0,0.0,91,0.00,,,0.00,VWS V14.01,2013-10-02 11:45:00,
2013-10-02 07:50:00,62.2,59.2,30.00,ESE,110,0.0,0.0,90,0.00,,,0.00,VWS V14.01,2013-10-02 11:50:00,
2013-10-02 07:55:00,62.9,59.3,30.00,ESE,110,0.0,0.0,88,0.00,,,0.00,VWS V14.01,2013-10-02 11:55:00,
2013-10-02 08:00:00,62.6,58.7,30.00,SE,135,0.0,0.0,87,0.00,,,0.00,VWS V14.01,2013-10-02 12:00:00,
2013-10-02 08:05:00,62.4,58.8,30.00,SE,131,0.0,0.0,88,0.00,,,0.00,VWS V14.01,2013-10-02 12:05:00,
2013-10-02 08:10:00,63.0,59.4,30.00,SE,131,0.0,0.0,88,0.00,,,0.00,VWS V14.01,2013-10-02 12:10:00,
2013-10-02 08:15:00,63.7,59.8,30.00,SE,131,0.0,0.0,87,0.00,,,0.00,VWS V14.01,2013-10-02 12:15:00,
2013-10-02 08:21:00,64.3,60.0,30.00,SE,131,0.0,0.0,86,0.00,,,0.00,VWS V14.01,2013-10-02 12:21:00,
2013-10-02 08:26:00,64.4,59.5,30.01,South,173,0.0,0.0,84,0.00,,,0.00,VWS V14.01,2013-10-02 12:26:00,
2013-10-02 08:31:00,64.7,59.8,30.01,South,186,0.0,0.0,84,0.00,,,0.00,VWS V14.01,2013-10-02 12:31:00,
2013-10-02 08:36:00,64.9,60.3,30.01,SW,214,0.0,0.0,85,0.00,,,0.00,VWS V14.01,2013-10-02 12:36:00,
2013-10-02 08:41:00,65.2,60.6,30.01,SW,218,0.0,0.0,85,0.00,,,0.00,VWS V14.01,2013-10-02 12:41:00,
2013-10-02 08:46:00,65.8,60.8,30.01,SW,218,0.0,0.0,84,0.00,,,0.00,VWS V14.01,2013-10-02 12:46:00,
2013-10-02 08:51:00,66.7,61.4,30.01,SSW,203,0.0,0.0,83,0.00,,,0.00,VWS V14.01,2013-10-02 12:51:00,
2013-10-02 08:56:00,66.7,61.4,30.01,SSE,167,0.0,0.0,83,0.00,,,0.00,VWS V14.01,2013-10-02 12:56:00,
2013-10-02 09:01:00,66.6,61.3,30.01,NW,307,0.0,0.0,83,0.00,,,0.00,VWS V14.01,2013-10-02 13:01:00,
2013-10-02 09:06:00,66.6,61.3,30.01,NW,308,0.0,0.0,83,0.00,,,0.00,VWS V14.01,2013-10-02 13:06:00,
2013-10-02 09:11:00,66.9,61.2,30.01,SW,233,0.0,1.0,82,0.00,,,0.00,VWS V14.01,2013-10-02 13:11:00,
2013-10-02 09:16:00,67.3,62.0,30.02,WNW,285,0.0,1.0,83,0.00,,,0.00,VWS V14.01,2013-10-02 13:16:00,
2013-10-02 09:22:00,67.9,62.2,30.01,WNW,287,0.0,0.0,82,0.00,,,0.00,VWS V14.01,2013-10-02 13:22:00,
2013-10-02 09:27:00,68.5,62.8,30.02,WSW,250,1.0,1.0,82,0.00,,,0.00,VWS V14.01,2013-10-02 13:27:00,
2013-10-02 09:32:00,69.0,62.6,30.02,WNW,297,0.0,5.0,80,0.00,,,0.00,VWS V14.01,2013-10-02 13:32:00,
2013-10-02 09:37:00,69.4,63.0,30.02,NW,318,1.0,1.0,80,0.00,,,0.00,VWS V14.01,2013-10-02 13:37:00,
2013-10-02 09:42:00,69.8,62.6,30.02,WNW,297,1.0,4.0,78,0.00,,,0.00,VWS V14.01,2013-10-02 13:42:00,
2013-10-02 09:47:00,70.3,63.5,30.02,WNW,287,0.0,2.0,79,0.00,,,0.00,VWS V14.01,2013-10-02 13:47:00,
2013-10-02 09:52:00,70.6,63.4,30.02,West,276,0.0,3.0,78,0.00,,,0.00,VWS V14.01,2013-10-02 13:52:00,
2013-10-02 09:57:00,71.2,63.3,30.02,West,280,0.0,4.0,76,0.00,,,0.00,VWS V14.01,2013-10-02 13:57:00,
2013-10-02 10:02:00,71.3,63.0,30.02,NW,316,0.0,5.0,75,0.00,,,0.00,VWS V14.01,2013-10-02 14:02:00,
2013-10-02 10:07:00,71.6,63.3,30.02,West,261,1.0,7.0,75,0.00,,CLR,0.00,VWS V14.01,2013-10-02 14:07:00,
2013-10-02 10:12:00,71.9,63.2,30.02,WNW,294,1.0,7.0,74,0.00,,CLR,0.00,VWS V14.01,2013-10-02 14:12:00,
2013-10-02 10:17:00,72.3,63.2,30.02,WSW,250,2.0,4.0,73,0.00,,CLR,0.00,VWS V14.01,2013-10-02 14:17:00,
2013-10-02 10:23:00,72.2,63.1,30.02,WNW,292,0.0,9.0,73,0.00,,CLR,0.00,VWS V14.01,2013-10-02 14:23:00,
2013-10-02 10:28:00,72.4,63.3,30.02,WNW,302,2.0,9.0,73,0.00,,CLR,0.00,VWS V14.01,2013-10-02 14:28:00,
2013-10-02 10:33:00,72.5,63.4,30.02,NW,304,4.0,8.0,73,0.00,,CLR,0.00,VWS V14.01,2013-10-02 14:33:00,
2013-10-02 10:38:00,72.4,63.7,30.02,WNW,285,1.0,8.0,74,0.00,,CLR,0.00,VWS V14.01,2013-10-02 14:38:00,
2013-10-02 10:43:00,72.6,63.5,30.02,West,280,0.0,11.0,73,0.00,,CLR,0.00,VWS V14.01,2013-10-02 14:43:00,
2013-10-02 10:48:00,72.8,63.7,30.02,SW,226,0.0,10.0,73,0.00,,CLR,0.00,VWS V14.01,2013-10-02 14:48:00,
2013-10-02 10:53:00,72.8,63.3,30.02,West,274,3.0,12.0,72,0.00,,CLR,0.00,VWS V14.01,2013-10-02 14:53:00,
2013-10-02 10:58:00,73.3,64.1,30.02,West,278,1.0,12.0,73,0.00,,CLR,0.00,VWS V14.01,2013-10-02 14:58:00,
2013-10-02 11:03:00,73.5,63.9,30.02,WNW,301,3.0,6.0,72,0.00,,CLR,0.00,VWS V14.01,2013-10-02 15:03:00,
2013-10-02 11:08:00,73.5,63.5,30.02,WNW,285,3.0,10.0,71,0.00,,CLR,0.00,VWS V14.01,2013-10-02 15:08:00,
2013-10-02 11:13:00,73.7,64.1,30.01,WSW,245,4.0,7.0,72,0.00,,CLR,0.00,VWS V14.01,2013-10-02 15:13:00,
2013-10-02 11:18:00,74.1,64.1,30.01,WNW,283,3.0,7.0,71,0.00,,CLR,0.00,VWS V14.01,2013-10-02 15:18:00,
2013-10-02 11:23:00,74.4,64.4,30.01,SW,227,6.0,6.0,71,0.00,,CLR,0.00,VWS V14.01,2013-10-02 15:23:00,
2013-10-02 11:29:00,74.4,64.0,30.01,NW,310,6.0,6.0,70,0.00,,CLR,0.00,VWS V14.01,2013-10-02 15:29:00,
2013-10-02 11:33:00,74.2,63.8,30.01,SW,236,3.0,9.0,70,0.00,,CLR,0.00,VWS V14.01,2013-10-02 15:33:00,
2013-10-02 11:38:00,74.3,63.9,30.01,SW,231,3.0,9.0,70,0.00,,CLR,0.00,VWS V14.01,2013-10-02 15:38:00,
2013-10-02 11:43:00,74.4,64.0,30.01,WSW,255,0.0,6.0,70,0.00,,CLR,0.00,VWS V14.01,2013-10-02 15:43:00,
2013-10-02 11:48:00,74.7,63.9,30.01,WNW,289,3.0,7.0,69,0.00,,CLR,0.00,VWS V14.01,2013-10-02 15:48:00,
2013-10-02 11:53:00,75.1,64.2,30.00,NE,44,0.0,7.0,69,0.00,,CLR,0.00,VWS V14.01,2013-10-02 15:53:00,
2013-10-02 11:58:00,75.6,65.1,30.00,WNW,283,3.0,10.0,70,0.00,,CLR,0.00,VWS V14.01,2013-10-02 15:58:00,
2013-10-02 12:03:00,75.8,64.5,30.00,NNW,333,5.0,9.0,68,0.00,,CLR,0.00,VWS V14.01,2013-10-02 16:03:00,
2013-10-02 12:08:00,76.1,65.2,30.00,NW,308,2.0,7.0,69,0.00,,CLR,0.00,VWS V14.01,2013-10-02 16:08:00,
2013-10-02 12:13:00,76.1,65.2,30.00,NW,314,6.0,8.0,69,0.00,,CLR,0.00,VWS V14.01,2013-10-02 16:13:00,
2013-10-02 12:18:00,76.4,63.8,30.00,NW,305,5.0,9.0,65,0.00,,CLR,0.00,VWS V14.01,2013-10-02 16:18:00,
2013-10-02 12:23:00,76.7,64.5,30.00,West,271,4.0,9.0,66,0.00,,CLR,0.00,VWS V14.01,2013-10-02 16:23:00,
2013-10-02 12:28:00,77.0,64.8,30.00,WNW,294,2.0,8.0,66,0.00,,CLR,0.00,VWS V14.01,2013-10-02 16:28:00,
2013-10-02 12:34:00,77.5,64.8,30.00,WNW,286,12.0,12.0,65,0.00,,CLR,0.00,VWS V14.01,2013-10-02 16:34:00,
2013-10-02 12:39:00,77.0,63.9,29.99,West,277,0.0,12.0,64,0.00,,CLR,0.00,VWS V14.01,2013-10-02 16:39:00,
2013-10-02 12:44:00,77.3,64.2,29.99,WNW,300,1.0,6.0,64,0.00,,CLR,0.00,VWS V14.01,2013-10-02 16:44:00,
2013-10-02 12:49:00,77.8,64.2,29.99,WNW,293,5.0,9.0,63,0.00,,CLR,0.00,VWS V14.01,2013-10-02 16:49:00,
2013-10-02 12:54:00,77.5,64.4,29.99,NW,308,11.0,14.0,64,0.00,,CLR,0.00,VWS V14.01,2013-10-02 16:54:00,
2013-10-02 12:59:00,77.3,64.2,29.99,NW,307,10.0,10.0,64,0.00,,CLR,0.00,VWS V14.01,2013-10-02 16:59:00,
2013-10-02 13:04:00,77.6,64.0,29.99,WNW,291,4.0,9.0,63,0.00,,CLR,0.00,VWS V14.01,2013-10-02 17:04:00,
2013-10-02 13:09:00,77.8,64.7,29.99,NW,308,0.0,7.0,64,0.00,,CLR,0.00,VWS V14.01,2013-10-02 17:09:00,
2013-10-02 13:14:00,78.4,65.2,29.99,SW,236,0.0,9.0,64,0.00,,CLR,0.00,VWS V14.01,2013-10-02 17:14:00,
2013-10-02 13:19:00,78.7,65.1,29.98,WNW,302,3.0,6.0,63,0.00,,CLR,0.00,VWS V14.01,2013-10-02 17:19:00,
2013-10-02 13:24:00,78.7,65.1,29.98,WNW,298,3.0,12.0,63,0.00,,CLR,0.00,VWS V14.01,2013-10-02 17:24:00,
2013-10-02 13:29:00,79.3,65.6,29.98,WNW,297,2.0,7.0,63,0.00,,CLR,0.00,VWS V14.01,2013-10-02 17:29:00,
2013-10-02 13:35:00,79.0,64.4,29.98,SSW,193,2.0,8.0,61,0.00,,CLR,0.00,VWS V14.01,2013-10-02 17:35:00,
2013-10-02 13:40:00,78.6,64.0,29.98,WNW,294,8.0,12.0,61,0.00,,CLR,0.00,VWS V14.01,2013-10-02 17:40:00,
2013-10-02 13:45:00,78.6,64.5,29.97,WNW,294,3.0,8.0,62,0.00,,CLR,0.00,VWS V14.01,2013-10-02 17:45:00,
2013-10-02 13:50:00,79.1,65.0,29.97,WSW,255,1.0,10.0,62,0.00,,CLR,0.00,VWS V14.01,2013-10-02 17:50:00,
2013-10-02 13:55:00,79.4,65.3,29.97,West,260,0.0,8.0,62,0.00,,CLR,0.00,VWS V14.01,2013-10-02 17:55:00,
2013-10-02 14:00:00,80.0,65.8,29.97,WNW,290,3.0,5.0,62,0.00,,CLR,0.00,VWS V14.01,2013-10-02 18:00:00,
2013-10-02 14:05:00,79.9,64.8,29.97,WSW,246,3.0,5.0,60,0.00,,CLR,0.00,VWS V14.01,2013-10-02 18:05:00,
2013-10-02 14:10:00,79.7,66.0,29.97,North,356,0.0,6.0,63,0.00,,CLR,0.00,VWS V14.01,2013-10-02 18:10:00,
2013-10-02 14:15:00,80.5,65.8,29.96,WNW,293,4.0,4.0,61,0.00,,CLR,0.00,VWS V14.01,2013-10-02 18:15:00,
2013-10-02 14:20:00,80.4,64.3,29.96,WSW,249,4.0,6.0,58,0.00,,CLR,0.00,VWS V14.01,2013-10-02 18:20:00,
2013-10-02 14:25:00,80.1,65.0,29.96,West,269,1.0,8.0,60,0.00,,CLR,0.00,VWS V14.01,2013-10-02 18:25:00,
2013-10-02 14:30:00,80.2,65.1,29.96,WNW,289,2.0,3.0,60,0.00,,CLR,0.00,VWS V14.01,2013-10-02 18:30:00,
2013-10-02 14:35:00,80.6,65.4,29.96,West,276,2.0,2.0,60,0.00,,CLR,0.00,VWS V14.01,2013-10-02 18:35:00,
2013-10-02 14:40:00,80.5,64.4,29.96,West,276,3.0,3.0,58,0.00,,CLR,0.00,VWS V14.01,2013-10-02 18:40:00,
2013-10-02 14:45:00,81.0,64.8,29.96,West,277,2.0,3.0,58,0.00,,CLR,0.00,VWS V14.01,2013-10-02 18:45:00,
2013-10-02 14:50:00,81.5,66.3,29.96,WNW,294,1.0,3.0,60,0.00,,CLR,0.00,VWS V14.01,2013-10-02 18:50:00,
2013-10-02 14:55:00,81.2,65.5,29.95,WSW,256,0.0,2.0,59,0.00,,CLR,0.00,VWS V14.01,2013-10-02 18:55:00,
2013-10-02 15:00:00,81.2,64.5,29.95,West,264,5.0,8.0,57,0.00,,CLR,0.00,VWS V14.01,2013-10-02 19:00:00,
2013-10-02 15:06:00,81.3,63.6,29.95,NW,304,4.0,12.0,55,0.00,,FEW045,0.00,VWS V14.01,2013-10-02 19:06:00,
2013-10-02 15:11:00,81.3,64.6,29.95,NNW,335,2.0,12.0,57,0.00,,FEW045,0.00,VWS V14.01,2013-10-02 19:11:00,
2013-10-02 15:16:00,81.3,64.1,29.95,North,5,9.0,11.0,56,0.00,,FEW045,0.00,VWS V14.01,2013-10-02 19:16:00,
2013-10-02 15:21:00,81.2,64.0,29.95,WNW,300,4.0,12.0,56,0.00,,FEW045,0.00,VWS V14.01,2013-10-02 19:21:00,
2013-10-02 15:26:00,81.5,63.8,29.95,WNW,283,6.0,8.0,55,0.00,,FEW045,0.00,VWS V14.01,2013-10-02 19:26:00,
2013-10-02 15:31:00,81.6,63.9,29.95,WNW,295,2.0,8.0,55,0.00,,FEW045,0.00,VWS V14.01,2013-10-02 19:31:00,
2013-10-02 15:36:00,81.8,64.1,29.94,NW,323,1.0,8.0,55,0.00,,FEW045,0.00,VWS V14.01,2013-10-02 19:36:00,
2013-10-02 15:41:00,82.1,63.8,29.94,WNW,292,5.0,14.0,54,0.00,,FEW045,0.00,VWS V14.01,2013-10-02 19:41:00,
2013-10-02 15:46:00,81.6,63.9,29.94,NW,304,3.0,4.0,55,0.00,,FEW045,0.00,VWS V14.01,2013-10-02 19:46:00,
2013-10-02 15:51:00,81.7,64.0,29.94,WNW,297,6.0,9.0,55,0.00,,FEW045,0.00,VWS V14.01,2013-10-02 19:51:00,
2013-10-02 15:56:00,82.0,63.7,29.94,NW,304,6.0,14.0,54,0.00,,FEW045,0.00,VWS V14.01,2013-10-02 19:56:00,
2013-10-02 16:01:00,82.1,63.8,29.94,WNW,300,10.0,10.0,54,0.00,,FEW045,0.00,VWS V14.01,2013-10-02 20:01:00,
2013-10-02 16:07:00,82.3,64.0,29.94,WNW,295,7.0,7.0,54,0.00,,CLR,0.00,VWS V14.01,2013-10-02 20:07:00,
2013-10-02 16:12:00,82.1,63.3,29.94,WNW,284,4.0,10.0,53,0.00,,CLR,0.00,VWS V14.01,2013-10-02 20:12:00,
2013-10-02 16:17:00,82.0,63.2,29.94,WNW,293,6.0,11.0,53,0.00,,CLR,0.00,VWS V14.01,2013-10-02 20:17:00,
2013-10-02 16:22:00,82.0,63.7,29.94,West,278,4.0,14.0,54,0.00,,CLR,0.00,VWS V14.01,2013-10-02 20:22:00,
2013-10-02 16:27:00,82.1,63.8,29.94,NW,323,4.0,8.0,54,0.00,,CLR,0.00,VWS V14.01,2013-10-02 20:27:00,
2013-10-02 16:32:00,82.2,63.9,29.94,West,264,4.0,8.0,54,0.00,,CLR,0.00,VWS V14.01,2013-10-02 20:32:00,
2013-10-02 16:37:00,82.0,63.7,29.94,NNW,328,1.0,7.0,54,0.00,,CLR,0.00,VWS V14.01,2013-10-02 20:37:00,
2013-10-02 16:42:00,82.5,64.2,29.94,WNW,295,2.0,4.0,54,0.00,,CLR,0.00,VWS V14.01,2013-10-02 20:42:00,
2013-10-02 16:47:00,82.2,63.9,29.94,WNW,291,5.0,11.0,54,0.00,,CLR,0.00,VWS V14.01,2013-10-02 20:47:00,
2013-10-02 16:52:00,81.9,63.6,29.94,WNW,295,6.0,8.0,54,0.00,,CLR,0.00,VWS V14.01,2013-10-02 20:52:00,
2013-10-02 16:58:00,81.9,63.6,29.93,WNW,303,6.0,9.0,54,0.00,,CLR,0.00,VWS V14.01,2013-10-02 20:58:00,
2013-10-02 17:03:00,81.9,63.6,29.93,WNW,283,1.0,8.0,54,0.00,,CLR,0.00,VWS V14.01,2013-10-02 21:03:00,
2013-10-02 17:08:00,82.0,64.3,29.93,NW,308,1.0,5.0,55,0.00,,CLR,0.00,VWS V14.01,2013-10-02 21:08:00,
2013-10-02 17:13:00,82.2,64.4,29.94,WNW,287,2.0,6.0,55,0.00,,CLR,0.00,VWS V14.01,2013-10-02 21:13:00,
2013-10-02 17:18:00,82.0,64.3,29.94,West,281,0.0,5.0,55,0.00,,CLR,0.00,VWS V14.01,2013-10-02 21:18:00,
2013-10-02 17:23:00,82.1,64.9,29.94,WNW,283,1.0,4.0,56,0.00,,CLR,0.00,VWS V14.01,2013-10-02 21:23:00,
2013-10-02 17:28:00,82.0,64.8,29.94,WNW,287,1.0,3.0,56,0.00,,CLR,0.00,VWS V14.01,2013-10-02 21:28:00,
2013-10-02 17:33:00,82.0,64.8,29.94,WNW,297,3.0,5.0,56,0.00,,CLR,0.00,VWS V14.01,2013-10-02 21:33:00,
2013-10-02 17:38:00,81.6,63.4,29.94,WNW,300,7.0,11.0,54,0.00,,CLR,0.00,VWS V14.01,2013-10-02 21:38:00,
2013-10-02 17:43:00,81.4,63.7,29.94,WNW,294,3.0,6.0,55,0.00,,CLR,0.00,VWS V14.01,2013-10-02 21:43:00,
2013-10-02 17:49:00,81.2,63.5,29.94,NNW,339,1.0,5.0,55,0.00,,CLR,0.00,VWS V14.01,2013-10-02 21:49:00,
2013-10-02 17:54:00,81.0,63.3,29.94,WNW,285,0.0,6.0,55,0.00,,CLR,0.00,VWS V14.01,2013-10-02 21:54:00,
2013-10-02 17:59:00,80.8,63.7,29.94,WNW,291,0.0,6.0,56,0.00,,CLR,0.00,VWS V14.01,2013-10-02 21:59:00,
2013-10-02 18:04:00,80.6,64.0,29.94,WNW,301,1.0,6.0,57,0.00,,CLR,0.00,VWS V14.01,2013-10-02 22:04:00,
2013-10-02 18:09:00,80.2,63.6,29.94,WNW,294,0.0,3.0,57,0.00,,CLR,0.00,VWS V14.01,2013-10-02 22:09:00,
2013-10-02 18:14:00,79.9,63.8,29.94,West,274,0.0,1.0,58,0.00,,CLR,0.00,VWS V14.01,2013-10-02 22:14:00,
2013-10-02 18:19:00,79.8,63.7,29.94,West,260,0.0,0.0,58,0.00,,CLR,0.00,VWS V14.01,2013-10-02 22:19:00,
2013-10-02 18:24:00,79.3,64.2,29.94,WSW,248,0.0,0.0,60,0.00,,CLR,0.00,VWS V14.01,2013-10-02 22:24:00,
2013-10-02 18:29:00,78.7,64.1,29.95,WSW,248,0.0,0.0,61,0.00,,CLR,0.00,VWS V14.01,2013-10-02 22:29:00,
2013-10-02 18:34:00,78.0,64.4,29.95,WSW,249,0.0,0.0,63,0.00,,CLR,0.00,VWS V14.01,2013-10-02 22:34:00,
2013-10-02 18:39:00,76.6,64.4,29.95,WSW,248,0.0,0.0,66,0.00,,CLR,0.00,VWS V14.01,2013-10-02 22:39:00,
2013-10-02 18:44:00,75.4,64.1,29.95,WSW,248,0.0,0.0,68,0.00,,CLR,0.00,VWS V14.01,2013-10-02 22:44:00,
2013-10-02 18:49:00,74.8,64.0,29.95,WSW,249,0.0,0.0,69,0.00,,CLR,0.00,VWS V14.01,2013-10-02 22:49:00,
2013-10-02 18:55:00,74.3,64.3,29.95,WSW,248,0.0,0.0,71,0.00,,CLR,0.00,VWS V14.01,2013-10-02 22:55:00,
2013-10-02 19:00:00,73.5,64.3,29.96,WSW,248,0.0,0.0,73,0.00,,CLR,0.00,VWS V14.01,2013-10-02 23:00:00,
2013-10-02 19:05:00,72.5,64.5,29.96,WSW,248,0.0,0.0,76,0.00,,CLR,0.00,VWS V14.01,2013-10-02 23:05:00,
2013-10-02 19:10:00,72.0,64.4,29.96,SE,132,0.0,0.0,77,0.00,,CLR,0.00,VWS V14.01,2013-10-02 23:10:00,
2013-10-02 19:15:00,71.2,64.0,29.96,ESE,113,0.0,0.0,78,0.00,,CLR,0.00,VWS V14.01,2013-10-02 23:15:00,
2013-10-02 19:20:00,70.5,64.0,29.96,ESE,113,0.0,0.0,80,0.00,,CLR,0.00,VWS V14.01,2013-10-02 23:20:00,
2013-10-02 19:25:00,70.2,63.8,29.96,ESE,113,0.0,0.0,80,0.00,,CLR,0.00,VWS V14.01,2013-10-02 23:25:00,
2013-10-02 19:30:00,70.1,63.3,29.96,ESE,113,0.0,0.0,79,0.00,,CLR,0.00,VWS V14.01,2013-10-02 23:30:00,
2013-10-02 19:35:00,70.2,63.4,29.96,ESE,113,0.0,0.0,79,0.00,,CLR,0.00,VWS V14.01,2013-10-02 23:35:00,
2013-10-02 19:40:00,70.5,63.3,29.96,ESE,113,0.0,0.0,78,0.00,,CLR,0.00,VWS V14.01,2013-10-02 23:40:00,
2013-10-02 19:45:00,69.6,63.5,29.96,ESE,113,0.0,0.0,81,0.00,,CLR,0.00,VWS V14.01,2013-10-02 23:45:00,
2013-10-02 19:49:00,69.3,62.9,29.97,ESE,113,0.0,0.0,80,0.00,,CLR,0.00,VWS V14.01,2013-10-02 23:49:00,
2013-10-02 19:54:00,69.7,62.9,29.97,ESE,113,0.0,0.0,79,0.00,,CLR,0.00,VWS V14.01,2013-10-02 23:54:00,
2013-10-02 19:59:00,69.8,63.0,29.97,ESE,113,0.0,0.0,79,0.00,,CLR,0.00,VWS V14.01,2013-10-02 23:59:00,
2013-10-02 20:04:00,69.3,62.9,29.97,ESE,115,0.0,0.0,80,0.00,,CLR,0.00,VWS V14.01,2013-10-03 00:04:00,
2013-10-02 20:09:00,68.8,62.7,29.97,ESE,113,0.0,0.0,81,0.00,,CLR,0.00,VWS V14.01,2013-10-03 00:09:00,
2013-10-02 20:15:00,67.9,62.2,29.97,ESE,119,0.0,0.0,82,0.00,,CLR,0.00,VWS V14.01,2013-10-03 00:15:00,
2013-10-02 20:20:00,66.8,62.2,29.98,ESE,104,0.0,1.0,85,0.00,,CLR,0.00,VWS V14.01,2013-10-03 00:20:00,
2013-10-02 20:25:00,67.2,62.2,29.98,East,101,0.0,0.0,84,0.00,,CLR,0.00,VWS V14.01,2013-10-03 00:25:00,
2013-10-02 20:30:00,67.7,62.4,29.98,East,101,0.0,0.0,83,0.00,,CLR,0.00,VWS V14.01,2013-10-03 00:30:00,
2013-10-02 20:35:00,68.4,62.3,29.98,East,101,0.0,0.0,81,0.00,,CLR,0.00,VWS V14.01,2013-10-03 00:35:00,
2013-10-02 20:40:00,69.0,62.2,29.98,ESE,105,0.0,0.0,79,0.00,,CLR,0.00,VWS V14.01,2013-10-03 00:40:00,
2013-10-02 20:45:00,69.0,62.2,29.98,ESE,104,0.0,1.0,79,0.00,,CLR,0.00,VWS V14.01,2013-10-03 00:45:00,
2013-10-02 20:50:00,69.5,62.3,29.98,WNW,285,0.0,0.0,78,0.00,,CLR,0.00,VWS V14.01,2013-10-03 00:50:00,
2013-10-02 20:55:00,69.5,62.0,29.98,WNW,283,0.0,0.0,77,0.00,,CLR,0.00,VWS V14.01,2013-10-03 00:55:00,
2013-10-02 21:00:00,69.3,61.8,29.98,WNW,282,0.0,0.0,77,0.00,,CLR,0.00,VWS V14.01,2013-10-03 01:00:00,
2013-10-02 21:05:00,68.5,61.7,29.98,WNW,283,0.0,0.0,79,0.00,,CLR,0.00,VWS V14.01,2013-10-03 01:05:00,
2013-10-02 21:10:00,68.0,61.6,29.98,WNW,285,0.0,0.0,80,0.00,,CLR,0.00,VWS V14.01,2013-10-03 01:10:00,
2013-10-02 21:15:00,67.8,61.8,29.98,WNW,285,0.0,0.0,81,0.00,,CLR,0.00,VWS V14.01,2013-10-03 01:15:00,
2013-10-02 21:20:00,67.9,61.5,29.98,WNW,285,0.0,0.0,80,0.00,,CLR,0.00,VWS V14.01,2013-10-03 01:20:00,
2013-10-02 21:25:00,68.1,61.7,29.98,WNW,285,0.0,0.0,80,0.00,,CLR,0.00,VWS V14.01,2013-10-03 01:25:00,
2013-10-02 21:31:00,68.3,61.5,29.98,WNW,285,0.0,0.0,79,0.00,,CLR,0.00,VWS V14.01,2013-10-03 01:31:00,
2013-10-02 21:36:00,68.1,61.7,29.99,WNW,285,0.0,0.0,80,0.00,,CLR,0.00,VWS V14.01,2013-10-03 01:36:00,
2013-10-02 21:41:00,68.1,61.7,29.98,WNW,285,0.0,0.0,80,0.00,,CLR,0.00,VWS V14.01,2013-10-03 01:41:00,
2013-10-02 21:46:00,68.7,61.9,29.98,West,264,0.0,0.0,79,0.00,,CLR,0.00,VWS V14.01,2013-10-03 01:46:00,
2013-10-02 21:51:00,69.0,61.9,29.99,SSE,149,0.0,0.0,78,0.00,,CLR,0.00,VWS V14.01,2013-10-03 01:51:00,
2013-10-02 21:56:00,68.7,61.6,29.99,SSE,149,0.0,0.0,78,0.00,,CLR,0.00,VWS V14.01,2013-10-03 01:56:00,
2013-10-02 22:01:00,68.7,61.6,29.99,South,170,0.0,0.0,78,0.00,,CLR,0.00,VWS V14.01,2013-10-03 02:01:00,
2013-10-02 22:05:00,68.7,61.6,29.99,SW,224,0.0,0.0,78,0.00,,CLR,0.00,VWS V14.01,2013-10-03 02:05:00,
2013-10-02 22:10:00,68.6,61.5,29.99,SW,221,0.0,0.0,78,0.00,,CLR,0.00,VWS V14.01,2013-10-03 02:10:00,
2013-10-02 22:15:00,68.0,61.2,29.99,SE,127,0.0,0.0,79,0.00,,CLR,0.00,VWS V14.01,2013-10-03 02:15:00,
2013-10-02 22:20:00,67.7,61.3,29.99,East,96,0.0,0.0,80,0.00,,CLR,0.00,VWS V14.01,2013-10-03 02:20:00,
2013-10-02 22:25:00,67.7,61.3,29.99,ESE,110,0.0,0.0,80,0.00,,CLR,0.00,VWS V14.01,2013-10-03 02:25:00,
2013-10-02 22:30:00,68.0,61.6,29.99,ESE,110,0.0,0.0,80,0.00,,CLR,0.00,VWS V14.01,2013-10-03 02:30:00,
2013-10-02 22:35:00,68.1,61.3,29.99,ESE,110,0.0,0.0,79,0.00,,CLR,0.00,VWS V14.01,2013-10-03 02:35:00,
2013-10-02 22:40:00,67.8,61.4,30.00,ESE,110,0.0,0.0,80,0.00,,CLR,0.00,VWS V14.01,2013-10-03 02:40:00,
2013-10-02 22:46:00,67.9,61.5,30.00,ESE,110,0.0,0.0,80,0.00,,CLR,0.00,VWS V14.01,2013-10-03 02:46:00,
2013-10-02 22:51:00,68.1,61.3,30.00,ESE,110,0.0,0.0,79,0.00,,CLR,0.00,VWS V14.01,2013-10-03 02:51:00,
2013-10-02 22:56:00,68.4,61.3,30.00,ESE,110,0.0,0.0,78,0.00,,CLR,0.00,VWS V14.01,2013-10-03 02:56:00,
2013-10-02 23:01:00,68.6,61.5,30.00,WSW,248,0.0,0.0,78,0.00,,CLR,0.00,VWS V14.01,2013-10-03 03:01:00,
2013-10-02 23:06:00,68.8,61.3,30.00,WSW,248,0.0,0.0,77,0.00,,CLR,0.00,VWS V14.01,2013-10-03 03:06:00,
2013-10-02 23:11:00,67.9,61.2,30.00,SE,134,0.0,0.0,79,0.00,,CLR,0.00,VWS V14.01,2013-10-03 03:11:00,
2013-10-02 23:16:00,67.2,61.2,30.00,SE,134,0.0,0.0,81,0.00,,CLR,0.00,VWS V14.01,2013-10-03 03:16:00,
2013-10-02 23:21:00,67.5,61.5,30.00,SE,134,0.0,0.0,81,0.00,,CLR,0.00,VWS V14.01,2013-10-03 03:21:00,
2013-10-02 23:26:00,68.1,61.3,30.01,SE,134,0.0,0.0,79,0.00,,CLR,0.00,VWS V14.01,2013-10-03 03:26:00,
2013-10-02 23:31:00,68.0,61.2,30.01,SE,134,0.0,0.0,79,0.00,,CLR,0.00,VWS V14.01,2013-10-03 03:31:00,
2013-10-02 23:37:00,68.1,61.3,30.01,SW,231,0.0,0.0,79,0.00,,CLR,0.00,VWS V14.01,2013-10-03 03:37:00,
2013-10-02 23:42:00,68.4,61.3,30.01,SW,229,0.0,0.0,78,0.00,,CLR,0.00,VWS V14.01,2013-10-03 03:42:00,
2013-10-02 23:47:00,67.5,61.1,30.01,SSE,159,0.0,0.0,80,0.00,,CLR,0.00,VWS V14.01,2013-10-03 03:47:00,
2013-10-02 23:52:00,67.7,61.3,30.01,WSW,243,0.0,0.0,80,0.00,,CLR,0.00,VWS V14.01,2013-10-03 03:52:00,
2013-10-02 23:57:00,68.0,61.2,30.01,WSW,243,0.0,0.0,79,0.00,,CLR,0.00,VWS V14.01,2013-10-03 03:57:00,